When you browse on this site, cookies collect data to enhance your experience and personalize the content and advertising you see.
Visit our Privacy Policy to learn more. By continuing to use the site, you agree to this use of cookies and data.
  • en France
  • Liste des pays
  • À 7 jours
  • Température de l'eau
  • Carte météo
  • Widgets météo
  • user-avatar
    Se connecter

    Météo par heure à Strasbourg

    Ce jour, 17 Février, Lundi

    Heure Température Précipitation Vent Pression Humidité
    00:00 +13°C° 0 mm 6 m/s 747 mmHg 62%
    01:00 +12°C° 0 mm 7 m/s 748 mmHg 63%
    02:00 +11°C° 0.1 mm 6 m/s 748 mmHg 68%
    03:00 +12°C° 0.1 mm 5 m/s 749 mmHg 73%
    04:00 +11°C° 0.1 mm 4 m/s 749 mmHg 78%
    05:00 +11°C° 0.4 mm 3 m/s 749 mmHg 82%
    06:00 +10°C° 0.4 mm 2 m/s 750 mmHg 85%
    07:00 +10°C° 0.4 mm 2 m/s 750 mmHg 89%
    08:00 +10°C° 1.4 mm 2 m/s 750 mmHg 90%
    09:00 +10°C° 1.4 mm 2 m/s 750 mmHg 92%
    10:00 +9°C° 1.4 mm 2 m/s 750 mmHg 93%
    11:00 +10°C° 1.4 mm 2 m/s 750 mmHg 92%
    12:00 +10°C° 1.4 mm 3 m/s 750 mmHg 91%
    13:00 +10°C° 1.4 mm 3 m/s 750 mmHg 91%
    14:00 +10°C° 0.4 mm 4 m/s 750 mmHg 88%
    15:00 +10°C° 0.4 mm 4 m/s 751 mmHg 85%
    16:00 +9°C° 0.4 mm 5 m/s 751 mmHg 82%
    17:00 +8°C° 0.4 mm 5 m/s 751 mmHg 82%
    18:00 +8°C° 0.4 mm 4 m/s 752 mmHg 82%
    19:00 +8°C° 0.4 mm 4 m/s 752 mmHg 82%
    20:00 +7°C° 0 mm 4 m/s 753 mmHg 82%
    21:00 +7°C° 0 mm 4 m/s 754 mmHg 81%
    22:00 +6°C° 0 mm 4 m/s 754 mmHg 81%
    23:00 +6°C° 0.1 mm 4 m/s 755 mmHg 81%

    Demain, 18 Février, Mardi

    Heure Température Précipitation Vent Pression Humidité
    00:00 +6°C° 0.1 mm 4 m/s 755 mmHg 82%
    01:00 +5°C° 0.1 mm 4 m/s 756 mmHg 83%
    02:00 +5°C° 0 mm 4 m/s 756 mmHg 83%
    03:00 +4°C° 0 mm 4 m/s 756 mmHg 84%
    04:00 +4°C° 0 mm 4 m/s 756 mmHg 85%
    05:00 +4°C° 0 mm 4 m/s 757 mmHg 85%
    06:00 +4°C° 0 mm 4 m/s 757 mmHg 85%
    07:00 +4°C° 0 mm 4 m/s 758 mmHg 85%
    08:00 +4°C° 0 mm 4 m/s 758 mmHg 83%
    09:00 +4°C° 0 mm 4 m/s 758 mmHg 80%
    10:00 +5°C° 0 mm 4 m/s 759 mmHg 78%
    11:00 +5°C° 0.1 mm 4 m/s 759 mmHg 73%
    12:00 +6°C° 0.1 mm 5 m/s 758 mmHg 69%
    13:00 +7°C° 0.1 mm 5 m/s 758 mmHg 64%
    14:00 +7°C° 0 mm 5 m/s 758 mmHg 63%
    15:00 +7°C° 0 mm 5 m/s 758 mmHg 62%
    16:00 +7°C° 0 mm 4 m/s 757 mmHg 61%
    17:00 +6°C° 0 mm 4 m/s 757 mmHg 66%
    18:00 +5°C° 0 mm 3 m/s 757 mmHg 71%
    19:00 +4°C° 0 mm 3 m/s 757 mmHg 76%
    20:00 +4°C° 0 mm 3 m/s 757 mmHg 77%
    21:00 +4°C° 0 mm 3 m/s 757 mmHg 78%
    22:00 +3°C° 0 mm 4 m/s 757 mmHg 79%
    23:00 +3°C° 0 mm 4 m/s 756 mmHg 80%

    Après-demain, 19 Février, Mercredi

    Heure Température Précipitation Vent Pression Humidité
    00:00 +3°C° 0 mm 4 m/s 756 mmHg 80%
    01:00 +3°C° 0 mm 4 m/s 755 mmHg 80%
    02:00 +2°C° 0 mm 5 m/s 755 mmHg 82%
    03:00 +3°C° 0 mm 5 m/s 754 mmHg 83%
    04:00 +3°C° 0 mm 5 m/s 753 mmHg 85%
    05:00 +3°C° 0.4 mm 5 m/s 753 mmHg 87%
    06:00 +3°C° 0.4 mm 6 m/s 753 mmHg 88%
    07:00 +3°C° 0.4 mm 6 m/s 753 mmHg 90%
    08:00 +3°C° 0.7 mm 6 m/s 753 mmHg 90%
    09:00 +3°C° 0.7 mm 6 m/s 753 mmHg 90%
    10:00 +3°C° 0.7 mm 6 m/s 753 mmHg 89%
    11:00 +4°C° 0.4 mm 6 m/s 753 mmHg 82%
    12:00 +4°C° 0.4 mm 6 m/s 754 mmHg 74%
    13:00 +5°C° 0.4 mm 6 m/s 754 mmHg 66%
    14:00 +5°C° 0.2 mm 6 m/s 754 mmHg 64%
    15:00 +6°C° 0.2 mm 5 m/s 755 mmHg 63%
    16:00 +6°C° 0.2 mm 5 m/s 755 mmHg 62%
    17:00 +5°C° 0 mm 4 m/s 755 mmHg 66%
    18:00 +4°C° 0 mm 3 m/s 756 mmHg 71%
    19:00 +4°C° 0 mm 2 m/s 756 mmHg 75%
    20:00 +4°C° 0 mm 2 m/s 756 mmHg 78%
    21:00 +4°C° 0 mm 2 m/s 756 mmHg 80%
    22:00 +3°C° 0 mm 2 m/s 756 mmHg 82%
    23:00 +3°C° 0 mm 2 m/s 756 mmHg 84%

    20 Février, Jeudi

    Heure Température Précipitation Vent Pression Humidité
    00:00 +3°C° 0 mm 2 m/s 756 mmHg 85%
    01:00 +3°C° 0 mm 2 m/s 755 mmHg 87%
    02:00 +3°C° 0 mm 2 m/s 755 mmHg 86%
    03:00 +3°C° 0 mm 2 m/s 754 mmHg 86%
    04:00 +3°C° 0 mm 2 m/s 754 mmHg 86%
    05:00 +3°C° 0 mm 2 m/s 753 mmHg 85%
    06:00 +3°C° 0 mm 2 m/s 753 mmHg 85%
    07:00 +3°C° 0 mm 2 m/s 753 mmHg 85%
    08:00 +4°C° 0 mm 2 m/s 752 mmHg 81%
    09:00 +4°C° 0 mm 3 m/s 752 mmHg 78%
    10:00 +5°C° 0 mm 3 m/s 752 mmHg 74%
    11:00 +7°C° 0 mm 3 m/s 752 mmHg 71%
    12:00 +8°C° 0 mm 3 m/s 751 mmHg 67%
    13:00 +9°C° 0 mm 3 m/s 751 mmHg 64%
    14:00 +9°C° 0 mm 3 m/s 750 mmHg 64%
    15:00 +10°C° 0 mm 3 m/s 750 mmHg 64%
    16:00 +10°C° 0 mm 3 m/s 750 mmHg 63%
    17:00 +9°C° 0 mm 3 m/s 750 mmHg 69%
    18:00 +7°C° 0 mm 3 m/s 750 mmHg 74%
    19:00 +5°C° 0 mm 3 m/s 751 mmHg 79%
    20:00 +5°C° 0 mm 3 m/s 751 mmHg 79%
    21:00 +5°C° 0 mm 3 m/s 751 mmHg 78%
    22:00 +5°C° 0 mm 4 m/s 752 mmHg 78%
    23:00 +5°C° 0.3 mm 4 m/s 752 mmHg 80%

    21 Février, Vendredi

    Heure Température Précipitation Vent Pression Humidité
    00:00 +6°C° 0.3 mm 4 m/s 753 mmHg 83%
    01:00 +6°C° 0.3 mm 5 m/s 753 mmHg 85%
    02:00 +5°C° 0.4 mm 4 m/s 754 mmHg 85%
    03:00 +5°C° 0.4 mm 4 m/s 755 mmHg 86%
    04:00 +4°C° 0.4 mm 3 m/s 756 mmHg 87%
    05:00 +3°C° 0.1 mm 3 m/s 756 mmHg 87%
    06:00 +3°C° 0.1 mm 3 m/s 757 mmHg 86%
    07:00 +3°C° 0.1 mm 2 m/s 758 mmHg 86%
    14:00 +8°C° 0 mm 3 m/s 760 mmHg 56%
    15:00 +8°C° 0 mm 3 m/s 760 mmHg 56%
    16:00 +8°C° 0 mm 3 m/s 760 mmHg 56%
    17:00 +7°C° 0 mm 2 m/s 760 mmHg 62%
    18:00 +6°C° 0 mm 2 m/s 760 mmHg 67%
    19:00 +5°C° 0 mm 2 m/s 760 mmHg 73%
    20:00 +4°C° 0 mm 2 m/s 760 mmHg 74%
    21:00 +4°C° 0 mm 2 m/s 761 mmHg 75%
    22:00 +4°C° 0 mm 2 m/s 761 mmHg 76%
    23:00 +4°C° 0 mm 2 m/s 760 mmHg 77%

    22 Février, Samedi

    Heure Température Précipitation Vent Pression Humidité
    00:00 +3°C° 0 mm 3 m/s 760 mmHg 78%
    01:00 +2°C° 0 mm 3 m/s 760 mmHg 78%
    02:00 +2°C° 0 mm 3 m/s 760 mmHg 78%
    03:00 +2°C° 0 mm 3 m/s 760 mmHg 78%
    04:00 +1°C° 0 mm 4 m/s 759 mmHg 78%
    05:00 +1°C° 0 mm 4 m/s 759 mmHg 78%
    06:00 +1°C° 0 mm 4 m/s 759 mmHg 78%
    07:00 +1°C° 0 mm 4 m/s 759 mmHg 79%
    08:00 +3°C° 0 mm 4 m/s 759 mmHg 76%
    09:00 +3°C° 0 mm 5 m/s 759 mmHg 73%
    10:00 +3°C° 0 mm 5 m/s 759 mmHg 70%
    11:00 +5°C° 0 mm 5 m/s 759 mmHg 69%
    12:00 +5°C° 0 mm 5 m/s 759 mmHg 69%
    13:00 +6°C° 0 mm 5 m/s 759 mmHg 68%
    14:00 +6°C° 0.1 mm 5 m/s 759 mmHg 70%
    15:00 +6°C° 0.1 mm 4 m/s 759 mmHg 71%
    16:00 +6°C° 0.1 mm 4 m/s 759 mmHg 73%
    17:00 +6°C° 0.1 mm 4 m/s 759 mmHg 75%
    18:00 +6°C° 0.1 mm 4 m/s 759 mmHg 77%
    19:00 +6°C° 0.1 mm 4 m/s 759 mmHg 79%
    20:00 +6°C° 0.1 mm 4 m/s 759 mmHg 81%
    21:00 +6°C° 0.1 mm 4 m/s 760 mmHg 83%
    22:00 +6°C° 0.1 mm 5 m/s 760 mmHg 86%
    23:00 +6°C° 0.1 mm 5 m/s 760 mmHg 86%
    Voir plus